TimeEDT,TemperatureF,Dew PointF,Humidity,Sea Level PressureIn,VisibilityMPH,Wind Direction,Wind SpeedMPH,Gust SpeedMPH,PrecipitationIn,Events,Conditions,WindDirDegrees,DateUTC
12:52 AM,35.1,32.0,89,29.65,10.0,Calm,Calm,-,N/A,,Overcast,0,2013-10-24 04:52:00
1:52 AM,36.0,32.0,86,29.66,10.0,Calm,Calm,-,N/A,,Overcast,0,2013-10-24 05:52:00
2:52 AM,37.9,28.9,70,29.65,10.0,SW,4.6,-,N/A,,Overcast,220,2013-10-24 06:52:00
3:15 AM,37.4,30.2,75,29.63,10.0,Calm,Calm,-,N/A,,Overcast,0,2013-10-24 07:15:00
3:52 AM,37.9,30.0,73,29.65,10.0,West,4.6,-,N/A,,Overcast,280,2013-10-24 07:52:00
4:21 AM,35.6,32.0,87,29.65,9.0,NW,3.5,-,0.00,,Overcast,320,2013-10-24 08:21:00
4:52 AM,36.0,30.0,79,29.68,10.0,West,5.8,-,0.00,,Overcast,260,2013-10-24 08:52:00
5:52 AM,34.0,23.0,64,29.69,10.0,WSW,6.9,-,N/A,,Partly Cloudy,240,2013-10-24 09:52:00
6:52 AM,32.0,24.1,73,29.71,10.0,SW,3.5,-,N/A,,Clear,220,2013-10-24 10:52:00
7:52 AM,30.0,25.0,82,29.71,10.0,Calm,Calm,-,N/A,,Clear,0,2013-10-24 11:52:00
8:52 AM,33.1,26.1,75,29.72,10.0,Calm,Calm,-,N/A,,Scattered Clouds,0,2013-10-24 12:52:00
9:52 AM,39.9,25.0,55,29.71,10.0,WSW,9.2,16.1,N/A,,Clear,250,2013-10-24 13:52:00
10:52 AM,43.0,26.1,51,29.71,10.0,SW,10.4,18.4,N/A,,Mostly Cloudy,220,2013-10-24 14:52:00
11:52 AM,42.1,25.0,51,29.70,10.0,WSW,8.1,20.7,N/A,,Overcast,250,2013-10-24 15:52:00
12:52 PM,43.0,24.1,47,29.68,10.0,West,10.4,18.4,N/A,,Overcast,260,2013-10-24 16:52:00
1:52 PM,44.1,24.1,45,29.67,10.0,WSW,12.7,18.4,N/A,,Overcast,240,2013-10-24 17:52:00
2:52 PM,44.1,25.0,47,29.68,10.0,West,11.5,24.2,N/A,,Overcast,260,2013-10-24 18:52:00
3:52 PM,44.1,27.0,51,29.69,10.0,West,13.8,19.6,N/A,,Overcast,270,2013-10-24 19:52:00
4:52 PM,41.0,30.9,67,29.73,10.0,West,6.9,16.1,N/A,,Overcast,280,2013-10-24 20:52:00
5:52 PM,41.0,30.9,67,29.75,10.0,WSW,6.9,-,N/A,,Overcast,240,2013-10-24 21:52:00
6:52 PM,39.0,32.0,76,29.78,10.0,West,5.8,-,0.00,Rain,Light Rain,260,2013-10-24 22:52:00
7:52 PM,37.9,32.0,79,29.81,10.0,SW,4.6,-,0.00,,Overcast,220,2013-10-24 23:52:00
8:52 PM,37.9,32.0,79,29.82,10.0,SW,3.5,-,N/A,,Overcast,220,2013-10-25 00:52:00
9:52 PM,37.9,30.0,73,29.83,10.0,SW,5.8,-,N/A,,Overcast,230,2013-10-25 01:52:00
10:52 PM,37.9,30.9,76,29.83,10.0,WSW,5.8,-,N/A,,Overcast,240,2013-10-25 02:52:00
11:52 PM,37.9,30.0,73,29.85,10.0,WSW,6.9,-,N/A,,Overcast,240,2013-10-25 03:52:00